RYR86DZ EBCI-LFMU

Flight info

Callsign RYR86DZ
Flight time N/A
Altitude 25000
Route CIV N872 LESDO DCT KOVIN DCT DUCRA UM728 RESMI UN857 DISAK DCT DIRMO DCT ETAMO DCT ADEKA DCT MOKDI DCT MEN J27 AFRIC
Aircraft B738/M-SDE2E3FGHIRWXY/LB1

Departure

Time N/A
Airport Brussels South Charleroi Airport (EBCI)

Arrival

Time 2026-04-26 07:45
Airport Béziers Vias airport (LFMU)
Time Latitude Longitude Altitude Speed Heading
2026-04-26 06:45 48.89473 2.51234 25261 ft 370 kts 216°
2026-04-26 06:46 48.87508 2.49288 25264 ft 370 kts 216°
2026-04-26 06:46 48.85348 2.47152 25251 ft 370 kts 216°
2026-04-26 06:46 48.83180 2.45009 25269 ft 369 kts 216°
2026-04-26 06:46 48.81057 2.42912 25261 ft 369 kts 216°
2026-04-26 06:47 48.78905 2.40788 25272 ft 369 kts 216°
2026-04-26 06:47 48.76791 2.38705 25266 ft 369 kts 216°
2026-04-26 06:47 48.74590 2.36538 25262 ft 370 kts 216°
2026-04-26 06:47 48.72415 2.34436 25266 ft 371 kts 212°
2026-04-26 06:48 48.69999 2.33012 25267 ft 376 kts 194°
2026-04-26 06:48 48.67395 2.32643 25279 ft 380 kts 180°
2026-04-26 06:48 48.64742 2.32940 25282 ft 381 kts 177°
2026-04-26 06:48 48.62130 2.33287 25258 ft 382 kts 177°
2026-04-26 06:49 48.59475 2.33644 25255 ft 382 kts 177°
2026-04-26 06:49 48.58577 2.33764 25261 ft 382 kts 177°
2026-04-26 06:49 48.57079 2.33962 25253 ft 382 kts 177°
2026-04-26 06:49 48.54424 2.34305 25256 ft 383 kts 177°
2026-04-26 06:50 48.51723 2.34643 25268 ft 395 kts 177°
2026-04-26 06:50 48.48929 2.34985 25253 ft 410 kts 177°
2026-04-26 06:50 48.46063 2.35331 25255 ft 423 kts 177°
2026-04-26 06:50 48.43083 2.35689 25242 ft 435 kts 177°
2026-04-26 06:51 48.40050 2.36054 25228 ft 437 kts 177°
2026-04-26 06:51 48.34377 2.36737 25224 ft 434 kts 177°
2026-04-26 06:51 48.31364 2.37097 25219 ft 434 kts 177°
2026-04-26 06:52 48.28354 2.37456 25222 ft 433 kts 177°
2026-04-26 06:52 48.25387 2.37808 25226 ft 433 kts 177°
2026-04-26 06:52 48.22365 2.38167 25225 ft 433 kts 177°
2026-04-26 06:52 48.19365 2.38522 25226 ft 434 kts 177°
2026-04-26 06:53 48.16332 2.38882 25224 ft 435 kts 176°
2026-04-26 06:53 48.13317 2.39239 25233 ft 436 kts 176°
2026-04-26 06:53 48.10283 2.39598 25231 ft 436 kts 176°
2026-04-26 06:53 48.07292 2.39951 25232 ft 437 kts 176°
2026-04-26 06:54 48.04250 2.40310 25233 ft 438 kts 176°
2026-04-26 06:54 48.01209 2.40669 25236 ft 438 kts 176°
2026-04-26 06:54 47.98205 2.41023 25230 ft 438 kts 176°
2026-04-26 06:54 47.95167 2.41381 25226 ft 438 kts 176°
2026-04-26 06:55 47.92112 2.41740 25228 ft 438 kts 176°
2026-04-26 06:55 47.89074 2.42097 25232 ft 438 kts 176°
2026-04-26 06:55 47.86071 2.42449 25233 ft 438 kts 176°
2026-04-26 06:55 47.83039 2.42804 25232 ft 437 kts 176°
2026-04-26 06:56 47.80001 2.43159 25221 ft 437 kts 176°
2026-04-26 06:56 47.76973 2.43513 25209 ft 437 kts 176°
2026-04-26 06:56 47.73929 2.43868 25212 ft 437 kts 176°
2026-04-26 06:56 47.70898 2.44221 25217 ft 437 kts 176°
2026-04-26 06:57 47.67864 2.44575 25221 ft 438 kts 176°
2026-04-26 06:57 47.64809 2.44930 25217 ft 438 kts 176°
2026-04-26 06:57 47.61776 2.45282 25218 ft 438 kts 176°
2026-04-26 06:57 47.58726 2.45636 25216 ft 438 kts 176°
2026-04-26 06:58 47.55719 2.45985 25213 ft 438 kts 176°
2026-04-26 06:58 47.52665 2.46338 25214 ft 439 kts 176°
2026-04-26 06:58 47.49623 2.46690 25214 ft 439 kts 176°
2026-04-26 06:58 47.46575 2.47042 25215 ft 439 kts 176°
2026-04-26 06:59 47.43525 2.47394 25208 ft 439 kts 176°
2026-04-26 06:59 47.40507 2.47741 25212 ft 439 kts 176°
2026-04-26 06:59 47.37459 2.48092 25209 ft 439 kts 176°
2026-04-26 06:59 47.34411 2.48442 25207 ft 439 kts 175°
2026-04-26 07:00 47.31360 2.48792 25214 ft 439 kts 175°
2026-04-26 07:00 47.28306 2.49143 25215 ft 439 kts 175°
2026-04-26 07:00 47.25259 2.49492 25211 ft 439 kts 175°
2026-04-26 07:00 47.22213 2.49841 25210 ft 439 kts 175°
2026-04-26 07:01 47.19168 2.50188 25210 ft 438 kts 175°
2026-04-26 07:01 47.16126 2.50536 25207 ft 438 kts 175°
2026-04-26 07:01 47.13122 2.50878 25206 ft 438 kts 175°
2026-04-26 07:01 47.10080 2.51225 25206 ft 437 kts 175°
2026-04-26 07:02 47.07056 2.51569 25202 ft 437 kts 175°
2026-04-26 07:02 47.04017 2.51914 25204 ft 436 kts 175°
2026-04-26 07:02 47.00995 2.52257 25202 ft 436 kts 175°
2026-04-26 07:02 46.97985 2.52599 25204 ft 435 kts 175°
2026-04-26 07:03 46.94949 2.52942 25202 ft 435 kts 175°
2026-04-26 07:03 46.91939 2.53283 25206 ft 435 kts 176°
2026-04-26 07:03 46.88913 2.53625 25203 ft 434 kts 176°
2026-04-26 07:03 46.85937 2.53961 25199 ft 434 kts 176°
2026-04-26 07:04 46.82920 2.54301 25202 ft 433 kts 176°
2026-04-26 07:04 46.79907 2.54640 25204 ft 433 kts 176°
2026-04-26 07:04 46.76899 2.54979 25199 ft 433 kts 176°
2026-04-26 07:04 46.73893 2.55317 25201 ft 433 kts 176°
2026-04-26 07:05 46.70882 2.55654 25193 ft 433 kts 176°
2026-04-26 07:05 46.67908 2.55988 25195 ft 433 kts 176°
2026-04-26 07:05 46.64903 2.56324 25197 ft 433 kts 176°
2026-04-26 07:05 46.61897 2.56661 25195 ft 433 kts 176°
2026-04-26 07:06 46.58884 2.56997 25192 ft 434 kts 176°
2026-04-26 07:06 46.55879 2.57333 25192 ft 434 kts 176°
2026-04-26 07:06 46.52886 2.57666 25190 ft 434 kts 176°
2026-04-26 07:06 46.49887 2.58000 25197 ft 434 kts 176°
2026-04-26 07:07 46.46869 2.58336 25191 ft 433 kts 176°
2026-04-26 07:07 46.43866 2.58670 25190 ft 433 kts 176°
2026-04-26 07:07 46.40852 2.59004 25189 ft 433 kts 176°
2026-04-26 07:07 46.37848 2.59337 25187 ft 433 kts 176°
2026-04-26 07:08 46.34842 2.59670 25185 ft 432 kts 176°
2026-04-26 07:08 46.31869 2.59999 25190 ft 432 kts 175°
2026-04-26 07:08 46.28867 2.60331 25185 ft 432 kts 176°
2026-04-26 07:08 46.25871 2.60662 25186 ft 432 kts 176°
2026-04-26 07:09 46.22865 2.60993 25183 ft 432 kts 176°
2026-04-26 07:09 46.19870 2.61323 25186 ft 432 kts 176°
2026-04-26 07:09 46.16867 2.61654 25184 ft 432 kts 176°
2026-04-26 07:09 46.13872 2.61983 25185 ft 431 kts 176°
2026-04-26 07:10 46.04921 2.62964 25185 ft 431 kts 175°
2026-04-26 07:11 45.99076 2.63604 25187 ft 431 kts 175°
2026-04-26 07:11 45.96073 2.63932 25181 ft 431 kts 175°
2026-04-26 07:11 45.93089 2.64257 25183 ft 431 kts 175°
2026-04-26 07:11 45.90088 2.64584 25180 ft 431 kts 175°
2026-04-26 07:12 45.87132 2.64906 25181 ft 431 kts 175°
2026-04-26 07:12 45.84139 2.65231 25183 ft 431 kts 175°
2026-04-26 07:12 45.81132 2.65558 25184 ft 431 kts 175°
2026-04-26 07:12 45.78144 2.65882 25180 ft 431 kts 175°
2026-04-26 07:13 45.75146 2.66207 25183 ft 431 kts 175°
2026-04-26 07:13 45.72146 2.66532 25184 ft 431 kts 176°
2026-04-26 07:13 45.69152 2.66855 25180 ft 431 kts 176°
2026-04-26 07:13 45.66188 2.67175 25182 ft 430 kts 176°
2026-04-26 07:14 45.63200 2.67498 25184 ft 430 kts 176°
2026-04-26 07:14 45.60208 2.67820 25185 ft 430 kts 176°
2026-04-26 07:14 45.57224 2.68142 25186 ft 429 kts 176°
2026-04-26 07:14 45.54249 2.68462 25183 ft 429 kts 176°
2026-04-26 07:15 45.51298 2.68779 25185 ft 429 kts 176°
2026-04-26 07:15 45.48284 2.69102 25190 ft 428 kts 176°
2026-04-26 07:15 45.45346 2.69417 25185 ft 428 kts 176°
2026-04-26 07:15 45.42373 2.69736 25190 ft 428 kts 176°
2026-04-26 07:16 45.39404 2.70053 25191 ft 428 kts 176°
2026-04-26 07:16 45.36430 2.70371 25191 ft 428 kts 176°
2026-04-26 07:16 45.33444 2.70690 25193 ft 428 kts 176°
2026-04-26 07:16 45.30478 2.71007 25196 ft 425 kts 177°
2026-04-26 07:17 45.27538 2.71320 25182 ft 423 kts 177°
2026-04-26 07:17 45.24615 2.71631 25184 ft 420 kts 177°
2026-04-26 07:17 45.21741 2.71937 25182 ft 418 kts 177°
2026-04-26 07:17 45.18843 2.72245 25188 ft 416 kts 177°
2026-04-26 07:18 45.15954 2.72551 25189 ft 416 kts 177°
2026-04-26 07:18 45.13063 2.72858 25191 ft 416 kts 177°
2026-04-26 07:18 45.10201 2.73160 25194 ft 416 kts 177°
2026-04-26 07:18 45.07309 2.73466 25197 ft 416 kts 177°
2026-04-26 07:19 45.04401 2.73773 25199 ft 417 kts 177°
2026-04-26 07:19 45.01509 2.74078 25195 ft 418 kts 177°
2026-04-26 07:19 44.98637 2.74381 25202 ft 419 kts 177°
2026-04-26 07:19 44.96702 2.74584 25203 ft 419 kts 177°
2026-04-26 07:20 44.92808 2.74995 25199 ft 419 kts 178°
2026-04-26 07:20 44.89934 2.75298 25203 ft 420 kts 178°
2026-04-26 07:20 44.87017 2.75604 25200 ft 420 kts 178°
2026-04-26 07:20 44.84103 2.75910 25202 ft 419 kts 178°
2026-04-26 07:21 44.82170 2.76113 25203 ft 419 kts 178°
2026-04-26 07:21 44.79261 2.76417 25199 ft 419 kts 178°
2026-04-26 07:21 44.76345 2.76722 25196 ft 419 kts 178°
2026-04-26 07:21 44.73427 2.77027 25197 ft 419 kts 178°
2026-04-26 07:22 44.70522 2.77331 25198 ft 419 kts 178°
2026-04-26 07:22 44.67606 2.77635 25192 ft 419 kts 178°
2026-04-26 07:22 44.64697 2.77938 25196 ft 419 kts 178°
2026-04-26 07:22 44.61795 2.78240 25202 ft 418 kts 178°
2026-04-26 07:23 44.58896 2.78542 25205 ft 419 kts 178°
2026-04-26 07:23 44.56011 2.78843 25177 ft 406 kts 178°
2026-04-26 07:23 44.53249 2.79134 25184 ft 390 kts 178°
2026-04-26 07:23 44.50633 2.79409 25180 ft 375 kts 178°
2026-04-26 07:24 44.48084 2.79676 25186 ft 361 kts 178°
2026-04-26 07:24 44.45603 2.79933 24988 ft 354 kts 178°
2026-04-26 07:24 44.43168 2.80184 24772 ft 348 kts 179°
2026-04-26 07:24 44.40762 2.80430 24440 ft 346 kts 178°
2026-04-26 07:25 44.38367 2.80675 24111 ft 344 kts 179°
2026-04-26 07:25 44.35974 2.80921 23783 ft 343 kts 179°
2026-04-26 07:25 44.33616 2.81163 23401 ft 341 kts 179°
2026-04-26 07:25 44.31251 2.81406 23028 ft 340 kts 179°
2026-04-26 07:26 44.29135 2.81623 22711 ft 338 kts 179°
2026-04-26 07:26 44.26827 2.81860 22368 ft 336 kts 178°
2026-04-26 07:26 44.24531 2.82096 22039 ft 333 kts 178°
2026-04-26 07:26 44.22187 2.82337 21700 ft 332 kts 178°
2026-04-26 07:27 44.19892 2.82572 21369 ft 330 kts 178°
2026-04-26 07:27 44.17603 2.82807 21026 ft 328 kts 178°
2026-04-26 07:27 44.15330 2.83039 20712 ft 327 kts 178°
2026-04-26 07:27 44.13059 2.83272 20385 ft 326 kts 178°
2026-04-26 07:28 44.10831 2.83499 20062 ft 324 kts 178°
2026-04-26 07:28 44.08589 2.83729 19733 ft 323 kts 178°
2026-04-26 07:28 44.06339 2.83958 19422 ft 322 kts 178°
2026-04-26 07:28 44.04108 2.84186 19098 ft 322 kts 177°
2026-04-26 07:29 44.01871 2.84414 18775 ft 321 kts 177°
2026-04-26 07:29 43.99651 2.84640 18436 ft 321 kts 177°
2026-04-26 07:29 43.97422 2.84867 18065 ft 321 kts 177°
2026-04-26 07:29 43.95188 2.85095 17718 ft 320 kts 177°
2026-04-26 07:30 43.92977 2.85320 17384 ft 319 kts 177°
2026-04-26 07:30 43.90755 2.85546 17054 ft 318 kts 177°
2026-04-26 07:30 43.88689 2.85756 16748 ft 317 kts 177°
2026-04-26 07:30 43.86502 2.85978 16426 ft 316 kts 177°
2026-04-26 07:31 43.84314 2.86200 16109 ft 314 kts 177°
2026-04-26 07:31 43.82129 2.86421 15791 ft 313 kts 176°
2026-04-26 07:31 43.79957 2.86641 15474 ft 312 kts 176°
2026-04-26 07:31 43.77796 2.86959 15138 ft 312 kts 167°
2026-04-26 07:32 43.75867 2.88217 14834 ft 313 kts 148°
2026-04-26 07:32 43.74048 2.89895 14487 ft 313 kts 146°
2026-04-26 07:32 43.72250 2.91605 14181 ft 312 kts 146°
2026-04-26 07:32 43.70463 2.93307 13854 ft 312 kts 146°
2026-04-26 07:33 43.68671 2.95005 13514 ft 311 kts 146°
2026-04-26 07:33 43.66881 2.96689 13181 ft 309 kts 146°
2026-04-26 07:33 43.65101 2.98357 12860 ft 309 kts 146°
2026-04-26 07:33 43.63356 2.99986 12627 ft 305 kts 146°
2026-04-26 07:34 43.61572 3.01647 12208 ft 307 kts 146°
2026-04-26 07:34 43.59804 3.03291 11730 ft 312 kts 146°
2026-04-26 07:34 43.57986 3.04979 11233 ft 316 kts 146°
2026-04-26 07:34 43.56146 3.06687 10753 ft 320 kts 146°
2026-04-26 07:35 43.54288 3.08411 10275 ft 324 kts 146°
2026-04-26 07:35 43.52402 3.10158 9776 ft 327 kts 146°
2026-04-26 07:35 43.50533 3.11887 9265 ft 329 kts 146°
2026-04-26 07:35 43.48682 3.13757 8746 ft 331 kts 135°
2026-04-26 07:36 43.47404 3.16357 8239 ft 330 kts 111°
2026-04-26 07:36 43.46634 3.19325 7862 ft 326 kts 107°
2026-04-26 07:36 43.45953 3.22262 7616 ft 319 kts 106°
2026-04-26 07:36 43.45294 3.25148 7334 ft 312 kts 106°
2026-04-26 07:37 43.44644 3.27972 7087 ft 307 kts 106°
2026-04-26 07:37 43.43998 3.30744 6845 ft 302 kts 106°
2026-04-26 07:37 43.43355 3.33476 6594 ft 297 kts 106°
2026-04-26 07:37 43.42728 3.36120 6335 ft 292 kts 107°
2026-04-26 07:38 43.42099 3.38761 6084 ft 288 kts 107°
2026-04-26 07:38 43.41475 3.41370 5840 ft 285 kts 107°
2026-04-26 07:38 43.40857 3.43953 5596 ft 281 kts 107°
2026-04-26 07:38 43.40247 3.46496 5343 ft 279 kts 107°
2026-04-26 07:39 43.39642 3.49019 5094 ft 277 kts 107°
2026-04-26 07:39 43.39039 3.51524 4845 ft 274 kts 107°
2026-04-26 07:39 43.38438 3.54019 4584 ft 272 kts 107°
2026-04-26 07:39 43.37870 3.56375 4373 ft 269 kts 107°
2026-04-26 07:40 43.37290 3.58770 4194 ft 259 kts 107°
2026-04-26 07:40 43.36537 3.60956 3946 ft 251 kts 129°
2026-04-26 07:40 43.35146 3.62303 3691 ft 245 kts 160°
2026-04-26 07:40 43.33495 3.62674 3447 ft 238 kts 185°
2026-04-26 07:41 43.32965 3.62543 3353 ft 236 kts 199°
2026-04-26 07:41 43.31684 3.61240 3101 ft 227 kts 237°
2026-04-26 07:41 43.31104 3.59318 2993 ft 211 kts 262°
2026-04-26 07:41 43.31061 3.57395 2965 ft 193 kts 276°
2026-04-26 07:42 43.31151 3.55846 2964 ft 189 kts 277°
2026-04-26 07:42 43.31262 3.54081 2990 ft 189 kts 277°
2026-04-26 07:42 43.31371 3.52284 2908 ft 187 kts 277°
2026-04-26 07:43 43.31476 3.50443 2529 ft 197 kts 277°
2026-04-26 07:43 43.31512 3.48559 2316 ft 195 kts 274°
2026-04-26 07:43 43.31573 3.46732 2218 ft 188 kts 277°
2026-04-26 07:43 43.31692 3.44957 1888 ft 189 kts 282°
2026-04-26 07:44 43.31919 3.43117 1268 ft 199 kts 281°
2026-04-26 07:44 43.32065 3.41289 943 ft 189 kts 275°
2026-04-26 07:44 43.32132 3.39537 600 ft 179 kts 272°
2026-04-26 07:44 43.32201 3.37945 311 ft 159 kts 278°
2026-04-26 07:45 43.32272 3.36515 103 ft 137 kts 273°
2026-04-26 07:45 43.32341 3.35372 65 ft 108 kts 271°
2026-04-26 07:45 43.32396 3.34466 53 ft 64 kts 276°
2026-04-26 07:45 43.32405 3.34349 60 ft 16 kts 276°
2026-04-26 07:46 43.32403 3.34280 58 ft 7 kts 252°
2026-04-26 07:46 43.32387 3.34223 59 ft 5 kts 279°
2026-04-26 07:46 43.32399 3.34221 55 ft 2 kts 51°
2026-04-26 07:46 43.32402 3.34307 58 ft 21 kts 94°
2026-04-26 07:47 43.32386 3.34573 58 ft 30 kts 95°
2026-04-26 07:47 43.32371 3.34850 52 ft 28 kts 94°
2026-04-26 07:47 43.32358 3.35110 55 ft 26 kts 94°
2026-04-26 07:47 43.32326 3.35314 56 ft 21 kts 146°
2026-04-26 07:48 43.32218 3.35325 58 ft 9 kts 183°
2026-04-26 07:48 43.32184 3.35338 50 ft 8 kts 153°
2026-04-26 07:48 43.32142 3.35344 57 ft 5 kts 180°
2026-04-26 07:48 43.32139 3.35344 57 ft 0 kts 180°